Flag Weather past 2 weeks in Kolbotn, Norway

Now
50 °F

Sprinkles. Partly sunny.


Feels Like: 44 °F
Forecast: 48 / 53 °F
Wind: 20 mph from Southwest

Location: Oslo / Fornebu

Current Time: Nov 1, 2014 at 2:27:17 PM

Latest Report: Nov 1, 2014 at 1:50 PM


Visibility: N/A

Pressure: 29.56 "Hg

Humidity: 94%

Dew point: 48 °F

Location of KolbotnLocation

Historic Weather in Kolbotn — Graph

°F

Kolbotn temperature yesterday

Maximum temperature yesterday: 54 °F (at 12:50 PM)
Minimum temperature yesterday: 48 °F (at 1:20 AM)
Average temperature yesterday: 50 °F

Past Weeks' High & Low Weather Summary

 TemperatureHumidityPressure
High55 °F (Oct 17, 2:20 PM)100% (Oct 18, 5:20 PM)30.15 "Hg (Oct 18, 5:20 PM)
Low43 °F (Oct 29, 2:50 AM)55% (Oct 17, 3:20 PM)29.03 "Hg (Oct 21, 1:20 PM)
Average50 °F84%29.55 "Hg
* Reported Oct 17 1:20 PM — Nov 1 12:50 PM, Kolbotn, Weather by CustomWeather, © 2014

Note: Actual official high and low records may vary slightly from our data, if they occured in-between our weather recording intervals... More about our weather records

Advertising

Kolbotn weather history for previous 24 hours

 ConditionsComfort  
Time TempWeatherWind HumidityBarometerVisibility
12:50 PM
Nov 1
52 °FLight rain. Partly sunny.29 mph94%29.56 "HgN/A
12:20 PM52 °FPartly sunny.26 mph100%29.56 "HgN/A
11:50 AM52 °FPartly sunny.23 mph100%29.56 "HgN/A
11:20 AM52 °FScattered clouds.23 mph100%29.56 "HgN/A
10:50 AM52 °FPartly sunny.20 mph100%29.56 "HgN/A
10:20 AM50 °FSprinkles. Partly sunny.21 mph100%29.56 "HgN/A
9:50 AM50 °FPartly sunny.18 mph100%29.53 "HgN/A
9:20 AM50 °FLight rain. Partly sunny.8 mph100%29.50 "HgN/A
8:50 AM50 °FLight rain. Overcast.13 mph100%29.50 "HgN/A
8:20 AM50 °FLight rain. Partly sunny.22 mph100%29.50 "HgN/A
7:50 AM52 °FRain. Fog.32 mph100%29.47 "Hg1 mi
7:20 AM54 °FRain showers. Fog.41 mph100%29.45 "Hg1 mi
6:50 AM54 °FRain showers. Fog.47 mph94%29.42 "Hg1 mi
6:20 AM54 °FSprinkles. Fog.46 mph100%29.45 "Hg2 mi
5:50 AM52 °FSprinkles. Fog.45 mph100%29.45 "Hg2 mi
5:20 AM52 °FSprinkles. Fog.45 mph100%29.47 "Hg2 mi
4:50 AM52 °FLight rain. Fog.47 mph100%29.47 "Hg1 mi
4:20 AM52 °FLight rain. Fog.50 mph100%29.50 "Hg0 mi
3:50 AM52 °FLight rain. Fog.48 mph100%29.50 "Hg0 mi
3:20 AM52 °FLight rain. Fog.48 mph100%29.53 "Hg0 mi
2:50 AM52 °FLight rain. Fog.48 mph100%29.53 "Hg1 mi
2:20 AM52 °FLight rain. Fog.48 mph100%29.56 "Hg1 mi
1:50 AM52 °FLight rain. Fog.50 mph100%29.56 "Hg1 mi
1:20 AM52 °FLight rain. Fog.48 mph100%29.59 "Hg1 mi
12:50 AM52 °FLight rain. Fog.48 mph100%29.62 "Hg1 mi
12:20 AM52 °FLight rain. Fog.48 mph100%29.62 "Hg1 mi
11:50 PM
Oct 31
52 °FLight rain. Fog.47 mph100%29.62 "Hg0 mi
11:20 PM52 °FLight rain. Fog.47 mph100%29.65 "Hg0 mi
10:50 PM52 °FLight rain. Fog.45 mph100%29.65 "Hg1 mi
9:50 PM52 °FLight rain. Fog.45 mph100%29.68 "Hg0 mi
9:20 PM52 °FLight rain. Fog.45 mph100%29.68 "Hg0 mi
8:50 PM52 °FLight rain. Fog.46 mph100%29.68 "Hg0 mi
8:20 PM52 °FLight rain. Fog.45 mph100%29.71 "Hg0 mi
7:50 PM52 °FLight rain. Fog.46 mph100%29.71 "Hg1 mi
7:20 PM52 °FLight rain. Fog.45 mph100%29.71 "Hg1 mi
6:50 PM52 °FLight rain. Fog.44 mph100%29.71 "Hg1 mi
6:20 PM52 °FLight rain. Fog.44 mph100%29.74 "Hg0 mi
5:50 PM52 °FLight rain. Fog.45 mph100%29.74 "Hg0 mi
5:20 PM52 °FLight rain. Fog.45 mph100%29.74 "Hg0 mi
4:50 PM52 °FLight rain. Fog.45 mph100%29.74 "Hg0 mi
4:20 PM52 °FLight rain. Fog.41 mph100%29.77 "Hg0 mi
3:50 PM52 °FLight rain. Fog.44 mph100%29.77 "Hg0 mi
3:20 PM52 °FLight rain. Fog.45 mph100%29.77 "Hg0 mi
2:50 PM52 °FLight rain. Fog.43 mph100%29.80 "Hg0 mi
2:20 PM52 °FLight rain. Fog.40 mph100%29.80 "Hg1 mi
Weather by CustomWeather, © 2014

See weather overviewHow to use our weather pages